[[{"header":{"parameterUnit":"m.s-1","parameterCategory":1,"la1":30.2991,"la2":30.254,"lo1":-89.0895,"lo2":-89.0444,"dy":0.0017,"dx":0.0017,"nx":28,"ny":28,"refTime":"2025-11-09T03:00:00:Z","depth":0,"parameterNumber":2,"parameterNumberName":"U-component_of_WINDS"},"data":[0,0,0,0,0,0,0,0,0,0,0,0,0,0,0,0,0,0,0,0,0,0,0,0,0,0,0,0,0,0,0,0,0,0,0,0,0,0,0,0,0,0,0,0,0,0,0,0,0,0,0,0,0,0,0,0,0,0,4.0017,4.0017,0,4.0038,4.0038,4.0039,3.9998,3.9997,3.9995,3.9994,4.0015,4.0016,4.0018,0,0,0,0,0,0,0,0,0,0,0,0,0,3.9943,3.9944,4.0017,4.0017,4.0018,4.0038,4.0038,4.0039,3.9998,3.9997,3.9995,3.9993,4.0014,4.0016,4.0018,0,0,0,0,0,0,0,0,0,0,0,0,0,3.9971,3.9945,4.0017,4.0,3.9999,4.0038,4.0038,4.0039,3.9999,3.9997,3.9995,3.9993,4.0013,4.0016,4.0019,4.0075,0,0,4.0027,4.0028,0,0,0,0,0,0,0,0,3.9969,3.9973,4.0002,4.0001,4.0,4.0013,4.002,4.0051,3.9999,3.9999,3.9994,3.9992,4.0016,4.0018,4.0026,4.0076,4.0077,4.0027,4.0029,4.003,4.0031,0,0,0,0,0,0,0,3.9967,3.9972,4.0025,4.0003,4.0001,3.9992,3.9993,4.0025,4.0018,3.9998,3.9996,3.9999,4.0015,4.0024,4.0027,4.0077,4.0027,4.0029,4.0031,4.0032,4.0177,4.0179,0,0,0,0,0,0,3.9967,3.9971,4.0025,4.0026,3.9979,3.9995,3.9996,4.0011,4.0018,4.0017,4.0,3.9997,4.002,4.0023,4.0027,4.0095,4.003,4.0032,4.0034,4.0175,4.0178,4.018,0,0,0,0,0,0,3.9966,3.9973,4.0024,3.9998,4.0004,3.9998,4.0015,4.0013,4.0022,4.0019,4.0018,4.0011,4.0019,4.0023,4.0064,4.0095,4.0033,4.0036,4.0172,4.0176,4.0179,4.0231,0,0,0,0,0,0,3.9964,3.9972,3.9993,3.9999,4.0005,4.006,4.0017,4.0014,4.0027,4.0022,4.0029,4.0028,4.0018,4.006,4.0067,4.0098,4.0038,4.0169,4.0174,4.0178,4.0227,4.0236,4.0244,0,0,0,0,0,3.9962,4.0007,3.9995,4.0001,4.0031,4.0062,4.0066,4.0053,4.0029,4.0051,4.005,4.0028,4.0091,4.0065,4.0072,4.0104,4.0167,4.0173,4.0178,4.0223,4.0234,4.0244,0,0,0,0,0,0,4.0004,4.0007,3.9994,4.0042,4.0052,4.0055,4.0082,4.0066,4.0083,4.0078,4.0061,4.0063,4.0108,4.011,4.0081,4.0161,4.0125,4.0132,4.0157,4.0168,4.0176,4.0175,4.004,0,0,0,0,0,4.002,4.0044,4.0045,4.0088,4.0094,4.0087,4.01,4.009,4.01,4.0104,4.0105,4.0116,4.0138,4.0153,4.0174,4.0227,4.0229,4.0253,4.0262,4.0269,4.0275,4.0305,4.0316,4.0197,4.0197,4.0197,0,0,4.0051,4.0055,4.0072,4.0097,4.0103,4.013,4.0091,4.012,4.014,4.0108,4.0147,4.0149,4.016,4.0208,4.0229,4.0211,4.0308,4.0275,4.0281,4.0283,4.0311,4.0322,4.0332,4.02,4.0199,4.0199,0,0,4.0121,4.0127,4.0164,4.0172,4.0184,4.0179,4.0188,4.0195,4.0195,4.0234,4.0211,4.0235,4.0273,4.0283,4.0292,4.037,4.0351,4.0377,4.0421,4.0451,4.046,4.0469,4.0497,4.0507,4.0383,4.0383,4.0383,0,4.0158,4.0197,4.0184,4.0216,4.0228,4.0202,4.024,4.0248,4.0266,4.0275,4.0255,4.0304,4.031,4.036,4.0379,4.0388,4.0398,4.0375,4.046,4.0468,4.0476,4.0503,4.0513,4.0386,4.0386,4.0385,4.0385,0,4.0243,4.0271,4.0299,4.0318,4.0334,4.0368,4.0361,4.0378,4.0367,4.0366,4.0407,4.0413,4.0435,4.0446,4.0435,4.0496,4.0485,4.0463,4.0427,4.0491,4.0516,4.0526,4.039,4.0389,4.0388,4.0388,0,0,4.0339,4.0352,4.0363,4.0372,4.0384,4.0405,4.044,4.0462,4.0478,4.0491,4.052,4.0554,4.0535,4.0546,4.0537,4.0563,4.0625,4.0538,4.0538,4.0554,4.0694,4.071,4.0722,4.0613,4.0615,4.0617,4.0693,0,4.041,4.0469,4.0459,4.0516,4.0543,4.052,4.055,4.0561,4.0561,4.0583,4.0583,4.0608,4.058,4.0587,4.0612,4.0612,4.0653,4.0607,4.064,4.0641,4.0638,4.0735,4.0752,4.0824,4.0703,4.0704,4.0706,0,4.05,4.0518,4.0578,4.0588,4.0599,4.0626,4.0647,4.0668,4.0681,4.0679,4.0693,4.068,4.0714,4.0679,4.0727,4.0696,4.071,4.0712,4.0715,4.0717,4.0677,4.074,4.0846,4.0857,4.0721,4.0719,4.0718,0,4.0565,4.0604,4.0646,4.0654,4.0667,4.0687,4.0693,4.0704,4.0718,4.0737,4.0746,4.0769,4.0781,4.0798,4.0791,4.0766,4.0842,4.0805,4.0842,4.0842,4.0858,4.0857,4.0968,4.0867,4.0867,4.0866,4.0866,0,4.0644,4.0682,4.0676,4.0701,4.0744,4.0733,4.0775,4.0778,4.0789,4.0815,4.0797,4.0822,4.0811,4.0836,4.083,4.0872,4.0878,4.0877,4.0876,4.0879,4.0879,4.0887,4.0882,4.0869,4.0869,4.0868,4.0868,0,4.0724,4.0721,4.0765,4.0774,4.0777,4.0808,4.0816,4.084,4.084,4.0873,4.0881,4.088,4.0908,4.0903,4.0934,4.0931,4.0983,4.0975,4.0979,4.0977,4.1014,4.1011,4.1134,4.115,4.1039,4.104,4.1041,0,4.0775,4.0804,4.0817,4.0833,4.0841,4.0868,4.0884,4.0875,4.0892,4.091,4.0933,4.096,4.0981,4.1027,4.1029,4.1054,4.1046,4.1088,4.1049,4.1053,4.1047,4.1046,4.1049,4.1095,4.1096,4.1097,4.1098,0,4.0866,4.0864,4.0887,4.0911,4.093,4.0948,4.0964,4.0979,4.0972,4.0992,4.1022,4.1038,4.1071,4.1098,4.1121,4.1128,4.1113,4.111,4.112,4.1124,4.1125,4.1126,4.1,4.1107,4.1106,4.1106,4.1105,4.1105,4.0933,4.0958,4.0972,4.0999,4.1011,4.1027,4.1051,4.1054,4.1079,4.1105,4.1099,4.1132,4.1146,4.1176,4.1185,4.1212,4.1196,4.121,4.1214,4.1218,4.1222,4.1122,4.1216,4.1216,4.1215,4.1215,4.1215,0,4.1024,4.1032,4.1057,4.1081,4.1103,4.1088,4.1105,4.1125,4.1155,4.1169,4.1191,4.1226,4.1253,4.1258,4.1284,4.1304,4.1298,4.1311,4.131,4.1312,4.1234,4.1223,4.1316,4.1316,4.1316,4.1316,4.1316,4.1316,4.1074,4.1116,4.1116,4.1165,4.1173,4.1206,4.1217,4.1233,4.1244,4.1284,4.1307,4.1311,4.1322,4.1349,4.1374,4.1375,4.1385,4.1402,4.14,4.1327,4.1317,4.1307,4.1297,4.1404,4.1404,4.1475,4.1476,4.1476]},{"header":{"parameterUnit":"m.s-1","parameterCategory":1,"la1":30.2991,"la2":30.254,"lo1":-89.0895,"lo2":-89.0444,"dy":0.0017,"dx":0.0017,"nx":28,"ny":28,"refTime":"2025-11-09T03:00:00:Z","depth":0,"parameterNumber":3,"parameterNumberName":"V-component_of_WINDS"},"data":[0,0,0,0,0,0,0,0,0,0,0,0,0,0,0,0,0,0,0,0,0,0,0,0,0,0,0,0,0,0,0,0,0,0,0,0,0,0,0,0,0,0,0,0,0,0,0,0,0,0,0,0,0,0,0,0,0,0,-7.9907,-7.9908,0,-8.0053,-8.0054,-8.0056,-8.0045,-8.0043,-8.0041,-8.0039,-8.0181,-8.0187,-8.0193,0,0,0,0,0,0,0,0,0,0,0,0,0,-7.9614,-7.9619,-7.9907,-7.9909,-7.991,-8.0052,-8.0054,-8.0056,-8.0045,-8.0043,-8.004,-8.0038,-8.0179,-8.0186,-8.0193,0,0,0,0,0,0,0,0,0,0,0,0,0,-7.9748,-7.9621,-7.9906,-7.9922,-7.9925,-8.0052,-8.0054,-8.0057,-8.0046,-8.0043,-8.0039,-8.0036,-8.0177,-8.0186,-8.0194,-8.0313,0,0,-8.0221,-8.0224,0,0,0,0,0,0,0,0,-7.9741,-7.9759,-7.9918,-7.9921,-7.9925,-8.0028,-8.0003,-8.0142,-8.0047,-8.0,-8.0039,-8.0035,-8.0132,-8.0144,-8.0179,-8.0319,-8.0325,-8.0221,-8.0227,-8.0231,-8.0233,0,0,0,0,0,0,0,-7.9732,-7.9753,-7.9964,-7.992,-7.9924,-7.992,-7.9936,-8.003,-8.0082,-8.0004,-8.0003,-8.0021,-8.0133,-8.017,-8.0182,-8.0328,-8.0221,-8.0229,-8.0234,-8.0238,-8.0575,-8.0578,0,0,0,0,0,0,-7.9719,-7.9745,-7.996,-7.9969,-7.9823,-7.9928,-7.9946,-7.9998,-8.0081,-8.0091,-8.0024,-8.002,-8.0157,-8.0172,-8.0187,-8.0333,-8.023,-8.0239,-8.0244,-8.0571,-8.0575,-8.0579,0,0,0,0,0,0,-7.9713,-7.9739,-7.9954,-7.9857,-7.9884,-7.9937,-7.9995,-8.0002,-8.0039,-8.0096,-8.0105,-8.0052,-8.0155,-8.0175,-8.0282,-8.0337,-8.0243,-8.025,-8.0567,-8.0572,-8.0577,-8.0624,0,0,0,0,0,0,-7.9705,-7.9736,-7.9783,-7.9858,-7.9889,-8.0048,-7.9999,-8.0007,-8.0055,-8.0052,-8.0125,-8.0134,-8.0154,-8.027,-8.0291,-8.0347,-8.0257,-8.0562,-8.0569,-8.0576,-8.0617,-8.063,-8.0641,0,0,0,0,0,-7.9694,-7.9788,-7.9785,-7.9811,-7.9949,-8.0051,-8.0069,-8.0092,-8.006,-8.0106,-8.0143,-8.0132,-8.0328,-8.0281,-8.0305,-8.0365,-8.0558,-8.0567,-8.0575,-8.0612,-8.0628,-8.0641,0,0,0,0,0,0,-7.9715,-7.9798,-7.9796,-7.9917,-7.9978,-8.0049,-8.0109,-8.0107,-8.0176,-8.017,-8.0193,-8.021,-8.0318,-8.0352,-8.0298,-8.0485,-8.0439,-8.0452,-8.0459,-8.0474,-8.0485,-8.0474,-8.0264,0,0,0,0,0,-7.9734,-7.9813,-7.988,-7.9981,-8.0011,-8.0055,-8.0101,-8.0113,-8.0176,-8.0201,-8.0245,-8.0305,-8.038,-8.0429,-8.0501,-8.0623,-8.0639,-8.0676,-8.0688,-8.0697,-8.0708,-8.0776,-8.0794,-8.0607,-8.0607,-8.0607,0,0,-7.9773,-7.9829,-7.9876,-7.9986,-8.0035,-8.0114,-8.0076,-8.0161,-8.022,-8.0213,-8.0318,-8.0354,-8.0421,-8.0537,-8.059,-8.0569,-8.0764,-8.0708,-8.0715,-8.0721,-8.0787,-8.0804,-8.082,-8.0613,-8.0612,-8.0611,0,0,-7.9886,-7.9936,-8.0026,-8.0076,-8.0151,-8.018,-8.0202,-8.0275,-8.0299,-8.0406,-8.0402,-8.0472,-8.06,-8.065,-8.0691,-8.0826,-8.0818,-8.0849,-8.0909,-8.0976,-8.099,-8.1004,-8.1052,-8.1069,-8.086,-8.086,-8.086,0,-7.9924,-8.0046,-8.0071,-8.0159,-8.0207,-8.0208,-8.0299,-8.0345,-8.0439,-8.0472,-8.0447,-8.0611,-8.0656,-8.0784,-8.0817,-8.0851,-8.0876,-8.084,-8.0987,-8.1,-8.1013,-8.1059,-8.1077,-8.0863,-8.0863,-8.0862,-8.0862,0,-8.009,-8.0175,-8.0238,-8.0332,-8.0388,-8.0476,-8.0514,-8.0567,-8.0576,-8.0607,-8.0717,-8.0772,-8.0856,-8.0888,-8.0895,-8.1017,-8.1002,-8.0982,-8.0936,-8.1033,-8.1077,-8.1095,-8.0868,-8.0867,-8.0866,-8.0865,0,0,-8.0217,-8.0327,-8.035,-8.0394,-8.0478,-8.0543,-8.0631,-8.0716,-8.0762,-8.0827,-8.0901,-8.1012,-8.0995,-8.1042,-8.1056,-8.1114,-8.1218,-8.1087,-8.1089,-8.111,-8.1357,-8.1371,-8.1392,-8.1214,-8.1218,-8.122,-8.1351,0,-8.0338,-8.0498,-8.0525,-8.0664,-8.0743,-8.0746,-8.0823,-8.0882,-8.0914,-8.0984,-8.1019,-8.1097,-8.1068,-8.1098,-8.1155,-8.1193,-8.1268,-8.1184,-8.1282,-8.1286,-8.1265,-8.1415,-8.143,-8.155,-8.1368,-8.1371,-8.1374,0,-8.0501,-8.0574,-8.0722,-8.0798,-8.0832,-8.0901,-8.0982,-8.105,-8.1117,-8.1136,-8.1191,-8.1199,-8.129,-8.1241,-8.1367,-8.1309,-8.1351,-8.1376,-8.1381,-8.1391,-8.1335,-8.1428,-8.1589,-8.1607,-8.1401,-8.1399,-8.1397,0,-8.0579,-8.0714,-8.0821,-8.0858,-8.0949,-8.0998,-8.1038,-8.1102,-8.1152,-8.1223,-8.1256,-8.1335,-8.1378,-8.1439,-8.1467,-8.1429,-8.1591,-8.1544,-8.1609,-8.1608,-8.1642,-8.1639,-8.1812,-8.167,-8.1669,-8.1669,-8.1669,0,-8.0712,-8.0802,-8.0858,-8.0923,-8.1025,-8.1055,-8.1154,-8.1192,-8.125,-8.1322,-8.1329,-8.1396,-8.1429,-8.1501,-8.1524,-8.1625,-8.1644,-8.1661,-8.1666,-8.1661,-8.1659,-8.1688,-8.168,-8.1674,-8.1673,-8.1672,-8.1671,0,-8.0816,-8.0857,-8.0974,-8.1052,-8.1074,-8.1145,-8.1211,-8.1274,-8.1307,-8.1398,-8.1421,-8.1473,-8.1558,-8.1593,-8.1696,-8.1711,-8.1828,-8.1826,-8.1806,-8.1807,-8.187,-8.1864,-8.2067,-8.2096,-8.1934,-8.1936,-8.1937,0,-8.0898,-8.0968,-8.1055,-8.1105,-8.1147,-8.1228,-8.128,-8.1313,-8.1367,-8.145,-8.1503,-8.159,-8.166,-8.1796,-8.1841,-8.192,-8.1921,-8.1987,-8.1932,-8.1925,-8.1922,-8.1917,-8.1925,-8.1996,-8.1998,-8.1999,-8.2,0,-8.1038,-8.1056,-8.1133,-8.1218,-8.1281,-8.1348,-8.1414,-8.1454,-8.1497,-8.1557,-8.1646,-8.1701,-8.1809,-8.1894,-8.1977,-8.2016,-8.2015,-8.2018,-8.2037,-8.2032,-8.2017,-8.2026,-8.1833,-8.2012,-8.2011,-8.201,-8.201,-8.2009,-8.1134,-8.1198,-8.127,-8.1355,-8.1409,-8.1471,-8.1535,-8.1578,-8.1653,-8.1745,-8.1759,-8.1855,-8.1921,-8.2033,-8.2076,-8.215,-8.2133,-8.216,-8.2167,-8.2173,-8.2178,-8.2006,-8.2165,-8.2165,-8.2164,-8.2164,-8.2164,0,-8.1276,-8.1323,-8.1402,-8.1495,-8.1563,-8.156,-8.1633,-8.1689,-8.1774,-8.1837,-8.1908,-8.2011,-8.2094,-8.2147,-8.2231,-8.228,-8.2282,-8.2301,-8.2297,-8.2306,-8.2188,-8.2164,-8.2298,-8.2298,-8.2298,-8.2298,-8.2298,-8.2298,-8.1357,-8.1465,-8.1491,-8.1626,-8.1672,-8.1767,-8.181,-8.1867,-8.1918,-8.2034,-8.2104,-8.2139,-8.2199,-8.2288,-8.2364,-8.2377,-8.2407,-8.2428,-8.244,-8.2328,-8.2314,-8.2301,-8.2278,-8.2434,-8.2434,-8.2552,-8.2553,-8.2554]}]]